This is the latest recevied weather packets stored in our database for station/object KD1KE. If no packets are shown the sender has not sent any weather packets the latest 10 day(s).
| Time | Temp. | Humidity | Pressure | Rain* | Wind** | Luminosity | Snow |
|---|---|---|---|---|---|---|---|
| 1777732936 | 6.11° C | 80% | 1013.3 hPa | 0 mm | - | - | - |
| 1777732848 | 6.11° C | 79% | 1013.3 hPa | 0 mm | - | - | - |
| 1777732396 | 6.11° C | 80% | 1013.3 hPa | 0 mm | - | - | - |
| 1777732188 | 6.11° C | 79% | 1013.3 hPa | 0 mm | - | - | - |
| 1777731856 | 6.11° C | 76% | 1013.5 hPa | 0 mm | - | - | - |
| 1777731529 | 6.11° C | 75% | 1013.3 hPa | 0 mm | - | - | - |
| 1777731316 | 6.11° C | 74% | 1013.2 hPa | 0 mm | - | - | - |
| 1777730868 | 6.11° C | 75% | 1013.1 hPa | 0 mm | - | - | - |
| 1777730776 | 6.11° C | 74% | 1013.1 hPa | 0 mm | - | - | - |
| 1777730240 | 6.11° C | 79% | 1013 hPa | 0 mm | - | - | - |
| 1777730207 | 6.11° C | 79% | 1013 hPa | 0 mm | - | - | - |
| 1777729697 | 6.11° C | 80% | 1013.1 hPa | 0 mm | - | - | - |
| 1777729548 | 6.11° C | 79% | 1013.1 hPa | 0 mm | - | - | - |
| 1777729156 | 6.11° C | 80% | 1013.1 hPa | 0 mm | - | - | - |
| 1777728887 | 6.11° C | 78% | 1012.9 hPa | 0 mm | - | - | - |
| 1777728659 | 6.11° C | 77% | 1013 hPa | 0 mm | - | - | - |
| 1777728616 | 6.11° C | 77% | 1013 hPa | 0 mm | - | - | - |
| 1777728228 | 6.11° C | 76% | 1013.1 hPa | 0 mm | - | - | - |
| 1777728076 | 6.11° C | 76% | 1013.1 hPa | 0 mm | - | - | - |
| 1777727567 | 6.11° C | 75% | 1013.1 hPa | 0 mm | - | - | - |
| 1777727538 | 6.11° C | 76% | 1013.1 hPa | 0 mm | - | - | - |
| 1777726996 | 6.11° C | 74% | 1013 hPa | 0 mm | - | - | - |
| 1777726907 | 6.11° C | 75% | 1013 hPa | 0 mm | - | - | - |
| 1777726455 | 5.56° C | 74% | 1012.9 hPa | 0 mm | - | - | - |
| 1777726248 | 5.56° C | 75% | 1012.9 hPa | 0 mm | - | - | - |
* Rain latest hour (hover to see other rain measurements)
** Current wind speed in m/s (hover to see current wind gust speed)